Regional Weather Roundup
Issued by NWS

Home | Current Version | Previous Version | Graphics & Text | Print | Product List | Glossary On
Versions: 1 2 3 4 5 6 7 8 9 10 11 12 13 14 15 16 17 18 19 20 21 22 23 24 25 26 27 28 29 30 31 32 33 34 35 36 37 38 39 40 41 42 43 44 45 46 47 48 49 50
000
ASUS43 KOAX 231202
RWRNE

WEATHER ROUNDUP FOR NEBRASKA
NATIONAL WEATHER SERVICE OMAHA NE
700 AM CDT FRI JUN 23 2017

NOTES: SATELLITE DATA IS BEING USED TO AUGMENT CLOUD COVER ABOVE
       12000 FEET.
       "FAIR" INDICATES FEW OR NO CLOUDS BELOW 12,000 FEET WITH NO
       SIGNIFICANT WEATHER AND/OR OBSTRUCTIONS TO VISIBILITY.

  * THESE STATIONS DO NOT REPORT WEATHER SUCH AS RAIN...SNOW OR FOG.

NEZ001>004-019>022-054>056-231300-
NEBRASKA PANHANDLE

CITY           SKY/WX    TMP DP  RH WIND       PRES   REMARKS
SCOTTSBLUFF    CLOUDY    54  37  52 NW9G28    30.26F
6HR MIN TEMP:  53; 6HR MAX TEMP:  67;

ALLIANCE       CLOUDY    50  42  74 N10       30.24R
6HR MIN TEMP:  50; 6HR MAX TEMP:  59; 6HR PCP:  0.01;

CHADRON        CLOUDY    52  44  74 W3        30.21F
6HR MIN TEMP:  52; 6HR MAX TEMP:  64;

GORDON         CLOUDY    51  46  83 CALM      30.22R
6HR MIN TEMP:  50; 6HR MAX TEMP:  61; 6HR PCP:  0.16;

KIMBALL        CLOUDY    49  42  74 N15G22    30.28S
SIDNEY         CLOUDY    51  44  77 N17       30.26R
6HR MIN TEMP:  51; 6HR MAX TEMP:  63; 6HR PCP:  0.01;

$$

NEZ057>060-069>072-079>082-231300-
SOUTHWEST NEBRASKA

CITY           SKY/WX    TMP DP  RH WIND       PRES   REMARKS
NORTH PLATTE   CLOUDY    60  40  47 N10       30.13R
6HR MIN TEMP:  59; 6HR MAX TEMP:  66; 6HR PCP: TRACE;

IMPERIAL       CLOUDY    56  48  74 N17G25    30.15R
6HR MIN TEMP:  56; 6HR MAX TEMP:  64; 6HR PCP:  0.13;

LEXINGTON      CLOUDY    60  49  67 N12G18    30.08R
MCCOOK         CLOUDY    60  54  80 N10       30.06R
6HR MIN TEMP:  58; 6HR MAX TEMP:  66; 6HR PCP:  0.07;

OGALLALA       CLOUDY    61  39  45 N21G28    30.18R
$$

NEZ005>010-023>029-035>040-094-231300-
NORTH CENTRAL NEBRASKA

CITY           SKY/WX    TMP DP  RH WIND       PRES   REMARKS
VALENTINE      CLOUDY    58  41  53 NW13G25   30.17R
6HR MIN TEMP:  58; 6HR MAX TEMP:  66; 6HR PCP: TRACE;

AINSWORTH      LGT RAIN  56  44  64 NW15      30.14R
BROKEN BOW     LGT RAIN  59  41  51 N16G28    30.07R
6HR MIN TEMP:  59; 6HR MAX TEMP:  65; 6HR PCP: TRACE;

O`NEILL        LGT RAIN  56  46  67 NW15G22   30.06R
ORD            CLOUDY    61  37  41 N20G25    30.04R
6HR MIN TEMP:  57; 6HR MAX TEMP:  66; 6HR PCP: TRACE;

THEDFORD       CLOUDY    57  42  57 NW23G31   30.17R
$$

NEZ041-046>049-061>064-073>077-083>087-231300-
SOUTH CENTRAL NEBRASKA

CITY           SKY/WX    TMP DP  RH WIND       PRES   REMARKS
GRAND ISLAND   MOCLDY    63  48  58 N15       29.99R
6HR MIN TEMP:  60; 6HR MAX TEMP:  67; 6HR PCP: TRACE;

AURORA         CLOUDY    64  48  57 N15       29.98R
HASTINGS       CLOUDY    65  49  56 N14       30.00R
6HR MIN TEMP:  63; 6HR MAX TEMP:  69; 6HR PCP: TRACE;

HEBRON         MOCLDY    66  55  66 N10       29.92F
HOLDREGE       CLOUDY    60  52  76 NW9       30.03R
KEARNEY *      CLOUDY    63  48  59 N20G25    30.01R
$$

NEZ011>018-030>034-042>045-231300-
NORTHEAST NEBRASKA

CITY           SKY/WX    TMP DP  RH WIND       PRES   REMARKS
NORFOLK        CLOUDY    62  41  46 N21G30    29.97R
6HR MIN TEMP:  54; 6HR MAX TEMP:  64;

ALBION         CLOUDY    64  40  42 NW18      30.01S
BLAIR          SUNNY     62  53  71 W3        29.93R
FREMONT        CLOUDY    63  51  65 NW8       29.94R
TEKAMAH        CLOUDY    63  49  60 N8        29.91R
6HR MIN TEMP:  57; 6HR MAX TEMP:  71;

WAYNE          CLOUDY    63  43  49 NW16G24   29.96R
$$

NEZ050>053-065>068-078-088>093-231300-
SOUTHEAST NEBRASKA

CITY           SKY/WX    TMP DP  RH WIND       PRES   REMARKS
LINCOLN        PTCLDY    66  52  60 NW10      29.95R
6HR MIN TEMP:  63; 6HR MAX TEMP:  74;

OMAHA EPPLEY   PTSUNNY   63  55  75 N7        29.91R
6HR MIN TEMP:  61; 6HR MAX TEMP:  73;

BEATRICE       CLOUDY    66  58  75 N12       29.93R
FALLS CITY     MOSUNNY   66  59  78 N6        29.83R
6HR MIN TEMP:  66; 6HR MAX TEMP:  78; 6HR PCP:  0.11;

NEBRASKA CITY  MOSUNNY   64  62  91 N10       29.90R
PLATTSMOUTH    SUNNY     63  59  86 NW8       29.91R
$$

NEZ044-045-051>053-067-231300-
OMAHA AREA

CITY           SKY/WX    TMP DP  RH WIND       PRES   REMARKS
OMAHA EPPLEY   PTSUNNY   63  55  75 N7        29.91R
6HR MIN TEMP:  61; 6HR MAX TEMP:  73;

BLAIR          SUNNY     62  53  71 W3        29.93R
FREMONT        CLOUDY    63  51  65 NW8       29.94R
MILLARD        SUNNY     65  55  70 NW8       29.93R
OFFUTT AFB     MOSUNNY   67  54  63 CALM      29.96R
PLATTSMOUTH    SUNNY     63  59  86 NW8       29.91R
WAHOO          FAIR      63  51  64 NW8       29.95R
$$




USA.gov is the U.S. government's official web portal to all federal, state and local government web resources and services.